Regional Weather Roundup
Issued by NWS

Home | Current Version | Previous Version | Graphics & Text | Print | Product List | Glossary On
Versions: 1 2 3 4 5 6 7 8 9 10 11 12 13 14 15 16 17 18 19 20 21 22 23 24 25 26 27 28 29 30 31 32 33 34 35 36 37 38 39 40 41 42 43 44 45 46 47 48 49 50
000
ASUS43 KMPX 221310
RWRMN
WEATHER ROUNDUP FOR MINNESOTA
NATIONAL WEATHER SERVICE TWIN CITIES/CHANHASSEN MN
800 AM CDT FRI JUL 22 2016


NOTE: "FAIR" INDICATES FEW OR NO CLOUDS BELOW 12,000 FEET WITH NO
SIGNIFICANT WEATHER AND/OR OBSTRUCTIONS TO VISIBILITY. N/A MEANS
CURRENT SKY AND/OR WEATHER CONDITIONS ARE NOT AVAILABLE.

MNZ060>063-068>070-221400-
   Twin Cities Metro

CITY           SKY/WX    TMP DP  RH WIND       PRES   REMARKS
TWIN CITIES    MOSUNNY   80  65  59 N6        30.02R
ST PAUL        SUNNY     77  67  71 CALM      30.02R
CRYSTAL        SUNNY     77  67  71 N5        30.01R
BLAINE         MOSUNNY   75  72  88 CALM      30.02R
LAKEVILLE      SUNNY     73  73 100 NE5       30.01R
EDEN PRAIRIE   SUNNY     79  69  71 N5        30.01R
LAKEVILLE      SUNNY     73  73 100 NE5       30.01R
SOUTH ST PAUL  SUNNY     77  65  67 NE3       30.01R
LAKE ELMO      FAIR      73  70  88 N3        30.04R
$$
MNZ001>005-007-008-013>017-022>024-027-028-221400-
   Northwest Minnesota

CITY           SKY/WX    TMP DP  RH WIND       PRES   REMARKS
BEMIDJI        SUNNY     72  66  83 SW5       30.02S
HALLOCK        SUNNY     68  64  88 W3        29.99R
ROSEAU         SUNNY     70  64  83 W5        29.98S
WARROAD        SUNNY     70  64  83 SW5       29.98S
THIEF RVR FALL SUNNY     72  66  81 W5        30.02R
CROOKSTON      SUNNY     72  70  94 SW5       30.01S
FOSSTON        MOSUNNY   72  66  83 S6        30.03S
DETROIT LAKES  SUNNY     72  68  88 CALM      30.05S
MOORHEAD       SUNNY     72  68  88 CALM      30.03S
PARK RAPIDS    MOSUNNY   71  65  81 CALM      30.04S
MAHNOMEN       FAIR      72  67  85 CALM      30.03S
$$
MNZ006-009>011-018-025>026-221400-
   North Central Minnesota

CITY           SKY/WX    TMP DP  RH WIND       PRES   REMARKS
BAUDETTE       SUNNY     71  63  75 W7        29.97S
FLAG ISLAND    SUNNY     70  61  73 W7        29.95S
INTL FALLS     SUNNY     70  63  78 W6        29.96S
WASKISH        SUNNY     73  68  83 W7        30.00R
BIG FORK       SUNNY     72  66  83 SW6       30.01R
GRAND RAPIDS   MOSUNNY   73  68  84 W5        30.04R
ORR            SUNNY     66  61  82 CALM      29.97S
COOK           SUNNY     72  63  73 SW8       30.00R
WALKER         FAIR      71  67  87 CALM      30.03S
$$
MNZ012-019>021-037-221400-
   Northeast Minnesota

CITY           SKY/WX    TMP DP  RH WIND       PRES   REMARKS
DULUTH         MOSUNNY   75  63  66 W6        30.01S
ELY            SUNNY     70  61  73 W6        29.99S
HIBBING        SUNNY     69  64  84 CALM      30.01R
EVELETH        SUNNY     67  63  84 W7        30.02R
DULUTH HARBOR  SUNNY     72  64  78 S5        29.98S
TWO HARBORS    SUNNY     75  66  73 W5        29.97S
SILVER BAY     SUNNY     73  63  68 SW3       29.96S
GRAND MARAIS     N/A     59  53  80 W12       29.91S
G MARAIS ARPRT SUNNY     72  57  60 SW5       29.98S
$$
MNZ029>031-032-039>041-046>048-054>057-064-221400-
   West Central Minnesota

CITY           SKY/WX    TMP DP  RH WIND       PRES   REMARKS
FERGUS FALLS   SUNNY     75  66  73 CALM      30.03S
WHEATON        CLOUDY    72  70  94 E3        30.03S
MORRIS         SUNNY     75  70  83 CALM      30.01S
ALEXANDRIA     SUNNY     76  67  73 E3        30.05S
ELBOW LAKE     FAIR      74  66  77 SE7       30.03R
WADENA         SUNNY     66  66 100 CALM      30.04R
GLENWOOD       SUNNY     73  66  78 CALM      30.05R
APPLETON       SUNNY     73  66  78 NE3       30.01R
BENSON         SUNNY     73  64  73 E6        30.02R
ORTONVILLE     SUNNY     72  70  94 CALM      30.02S
MADISON        SUNNY     73  72  94 E5        30.02S
WILLMAR        FAIR      75  72  88 E3        30.04R
$$
MNZ033>034-036-042>043-049>051-058-059-221400-
   Central Minnesota

CITY           SKY/WX    TMP DP  RH WIND       PRES   REMARKS
ST CLOUD       SUNNY     73  69  87 CALM      30.02R
SAUK CENTRE    FAIR      70  67  91 CALM      30.05R
PAYNESVILLE    MOSUNNY   71  68  89 CALM      30.04S
AITKIN         SUNNY     72  66  83 CALM      30.02R
PINE RIVER     SUNNY     66  66 100 W1        30.06S
BRAINERD       SUNNY     70  67  90 CALM      30.04R
STAPLES        SUNNY     66  66 100 CALM      30.04S
LONG PRAIRIE   FAIR      68  64  88 CALM      30.05R
LITTLE FALLS   SUNNY     66  64  94 CALM      30.03S
LITCHFIELD     SUNNY     75  72  88 NE5       30.04R
BUFFALO        SUNNY     75  65  70 CALM      30.03S
MAPLE LAKE     SUNNY     75  69  80 CALM      30.03S
HUTCHINSON     SUNNY     77  71  83 NE7       30.03R
$$
MNZ037-044-045-052-053-221400-
   East Central Minnesota

CITY           SKY/WX    TMP DP  RH WIND       PRES   REMARKS
PRINCETON      SUNNY     72  70  94 CALM      30.02S
MORA           SUNNY     68  64  88 S3        30.04R
CAMBRIDGE      SUNNY     77  64  65 CALM      30.01R
RUSH CITY      SUNNY     71  65  83 CALM      30.03R
MOOSE LAKE     SUNNY     68  64  88 CALM      30.00R
HINCKLEY       FAIR      72  66  83 CALM      30.01S
CLOQUET        SUNNY     73  63  68 W3        30.01S
MCGREGOR       SUNNY     70  66  88 CALM      30.03R
$$
MNZ071>073-080-081-089-090-097-098-221400-
   Southwest Minnesota

CITY           SKY/WX    TMP DP  RH WIND       PRES   REMARKS
MONTEVIDEO     SUNNY     75  73  94 SE3       30.03S
GRANITE FALLS  SUNNY     75  70  84 N6        30.04R
CANBY          MOSUNNY   74  71  89 NE3       30.03S
MARSHALL       PTSUNNY   74  71  91 N8        30.02R
REDWOOD FALLS  SUNNY     76  69  79 N6        30.00R
OLIVIA         SUNNY     73  70  88 NE5       30.02R
PIPESTONE      SUNNY     79  73  83 SE7       29.99S
WINDOM         SUNNY     79  73  83 SE8       29.98F
WORTHINGTON    SUNNY     79  76  90 E8        30.00S
JACKSON        MOSUNNY   79  73  83 E8        30.00S
TRACY          SUNNY     78  74  88 N8        30.00R
SLAYTON        SUNNY     76  74  91 SE6       30.00S
$$
MNZ065>067-074>077-082>085-091>093-221400-
   South Central Minnesota

CITY           SKY/WX    TMP DP  RH WIND       PRES   REMARKS
MANKATO        PTSUNNY   79  72  78 SE12      29.98S
NEW ULM        SUNNY     79  72  78 E7        29.96F
ST JAMES       SUNNY     73  70  88 E5        29.98S
FAIRMONT         N/A    N/A N/A N/A MISG        N/A
GLENCOE        SUNNY     75  72  89 N5        30.02R
FARIBAULT      MOSUNNY   79  75  89 CALM      30.00S
OWATONNA       PTSUNNY   81  75  83 E5        30.00F FOG
WASECA         CLOUDY    77  73  88 SE6       30.01S FOG
ALBERT LEA     PTSUNNY   79  75  89 SE6       30.01R
$$
MNZ078>079-086>088-094>096-221400-
   Southeast Minnesota

CITY           SKY/WX    TMP DP  RH WIND       PRES   REMARKS
ROCHESTER      CLOUDY    76  74  93 S3        30.03S
RED WING       MOSUNNY   75  73  94 SE3       29.98F
STANTON        SUNNY     73  72  94 CALM      29.99S
DODGE CENTER   PTSUNNY   79  75  89 S3        30.02S
WINONA         MOSUNNY   77  72  83 CALM      30.00S
AUSTIN         PTSUNNY   75  72  88 S5        30.02R
PRESTON        PTSUNNY   74  69  85 CALM      30.04S
$$
ABBREVIATIONS USED IN REMARKS
   TC - TEMPERATURES IN CELSIUS
  WCI - WIND CHILL INDEX
   HX - HEAT INDEX
  VSB - VISIBILITY
$$




USA.gov is the U.S. government's official web portal to all federal, state and local government web resources and services.